Wind_Speed
22 24 26 27 27 29 31 36 38 39 40 43 45 57 64 64 64 59 53 50 54 56 55 57 52 49 49 49 51 58 59 55 49 37 30 30 39 32 15 26 27 26 34 30 35
27 28 29 30 31 32 33 34 36 38 42 43 44 46 57 66 65 62 56 56 56 55 55 54 55 54 57 61 62 60 60 58 46 39 37 36 44 43 30 34 17 24 27 37 32
28 29 30 31 33 34 35 36 37 39 40 42 47 48 48 50 58 61 69 68 61 59 55 56 59 60 61 62 60 60 59 51 43 39 39 37 37 37 48 48 37 34 32 29 32
34 35 36 37 38 39 40 41 41 41 41 43 44 47 51 53 54 56 57 60 70 65 64 62 63 66 69 67 59 60 60 56 49 45 43 43 40 41 45 52 47 39 39 40 39
33 34 36 38 39 40 41 42 43 45 45 46 46 47 49 49 49 56 58 58 61 72 76 74 77 72 73 69 60 66 60 56 50 49 46 47 48 45 46 47 46 43 47 51 55
34 35 37 38 39 41 43 46 47 47 47 47 49 50 50 48 51 53 57 59 61 63 66 68 68 63 68 70 66 59 57 55 53 53 53 53 51 51 48 49 49 48 51 52 54
31 34 37 39 42 44 46 48 49 50 52 53 53 52 50 50 57 55 57 56 55 58 59 59 61 63 64 67 71 69 65 63 59 56 57 53 54 46 44 45 45 47 48 45 43
34 36 39 41 43 46 49 52 54 55 56 56 56 56 53 56 55 56 58 58 58 58 57 58 59 60 62 64 64 69 73 70 58 58 56 55 51 43 44 41 41 40 34 35 40
35 39 43 45 48 49 51 55 59 60 61 62 62 59 56 59 60 58 58 59 61 60 60 61 63 62 61 59 60 60 65 65 53 50 54 61 47 45 41 39 39 35 31 32 27
39 40 41 45 51 55 60 65 64 63 63 64 65 65 64 64 63 63 62 61 62 63 64 64 64 64 62 60 56 55 55 52 49 53 54 53 51 45 37 37 34 32 34 28 31
42 46 50 53 57 61 66 74 76 78 77 76 69 67 68 69 67 66 65 64 65 64 66 70 70 61 48 51 53 53 54 51 49 48 47 45 45 40 32 32 33 34 29 29 34
46 48 51 57 60 68 77 82 80 78 77 55 67 67 67 64 70 67 67 66 67 66 66 69 64 50 55 56 60 59 55 48 45 46 44 38 43 40 33 34 32 34 29 35 36
44 47 53 57 64 70 63 55 48 44 43 30 34 47 46 57 60 62 65 66 65 67 67 66 53 56 61 65 64 57 55 47 46 49 43 43 50 46 33 27 32 34 36 34 29
45 48 53 58 61 59 53 48 25 25 7 6 10 13 29 30 46 48 52 57 61 60 60 64 56 56 60 66 63 59 54 52 53 52 47 45 56 42 28 28 31 31 38 23 21
45 48 51 55 54 43 37 22 21 14 8 3 5 6 2 8 20 24 31 43 52 53 54 54 57 60 63 57 64 56 54 53 52 51 49 51 47 23 28 25 25 27 25 21 23
45 47 50 51 48 37 30 25 24 16 16 16 13 19 5 9 14 17 5 16 24 31 48 52 55 58 57 57 63 59 58 52 49 47 50 38 44 20 21 23 27 19 20 21 27
43 45 46 47 41 37 32 27 26 23 19 18 18 19 21 5 12 20 13 12 15 18 37 52 51 55 55 59 57 58 58 55 54 53 45 33 41 28 16 20 14 19 20 25 24
41 45 42 42 41 35 33 28 28 22 22 21 20 17 19 25 18 11 13 16 18 21 24 35 46 53 54 55 59 58 61 60 59 55 43 40 48 18 20 17 10 14 19 21 17
39 44 43 40 40 34 33 30 27 24 25 27 27 17 13 21 21 26 23 23 28 31 32 36 45 41 53 56 53 55 64 51 57 54 51 46 40 27 18 11 8 18 15 13 10
39 42 44 40 36 35 30 28 27 24 19 23 25 16 21 14 17 10 13 18 27 31 33 33 38 35 43 60 62 58 53 56 56 55 54 45 41 31 15 9 13 13 15 9 11
41 41 45 42 35 35 29 28 25 22 23 16 27 14 15 16 13 15 12 13 12 27 32 31 33 34 44 54 58 55 53 61 57 57 51 46 35 10 12 18 17 17 13 13 14
39 41 45 46 41 35 28 28 28 25 21 17 14 11 11 15 12 13 15 17 21 20 29 31 31 35 40 45 53 65 61 58 62 55 50 43 26 12 15 22 17 18 15 17 14
35 39 44 46 42 31 30 27 26 26 22 16 12 11 10 10 14 14 11 11 13 16 19 23 22 25 40 47 41 59 61 56 58 52 49 46 32 18 14 20 19 19 25 11 14
35 34 39 44 43 35 29 29 25 24 22 17 11 9 4 6 19 17 16 10 7 16 14 14 20 26 34 35 47 55 65 59 58 61 49 50 32 14 12 19 28 20 23 15 11
35 32 37 40 40 39 33 30 28 23 24 20 11 8 9 12 13 20 23 17 11 11 16 8 8 20 35 37 48 54 69 64 64 62 59 44 36 18 23 25 26 25 17 18 17
34 31 30 34 38 39 38 31 27 23 24 19 17 8 17 17 19 18 22 21 21 15 16 11 9 20 35 43 43 53 67 66 66 61 59 41 32 16 23 24 23 24 16 22 20
33 33 30 33 34 36 37 32 27 24 20 24 14 13 12 12 15 19 19 17 19 21 8 11 9 13 24 29 36 49 66 63 63 57 48 45 34 28 32 41 30 27 26 27 21
Wind_Direction
268 270 269 265 262 261 257 256 258 258 255 251 247 243 235 234 239 240 241 236 237 239 243 248 244 245 245 242 247 253 258 255 249 255 265 241 229 221 228 252 240 249 255 250 257
274 272 270 270 269 265 262 260 258 255 254 252 251 251 240 236 237 239 241 238 237 236 238 242 245 248 250 251 256 264 263 270 260 256 262 252 252 241 233 249 250 239 250 261 256
280 278 276 274 272 272 270 265 260 259 258 252 250 246 247 244 243 244 244 244 238 239 240 245 247 252 254 253 255 256 265 277 264 265 263 259 246 251 246 244 252 254 263 270 273
287 286 284 281 278 275 272 272 270 266 259 256 255 251 246 242 241 243 244 243 237 242 242 243 252 257 259 259 254 254 267 271 267 262 260 261 262 259 257 264 256 254 258 264 269
287 285 284 283 281 279 276 274 272 271 268 264 258 254 252 248 246 248 243 240 239 241 242 247 254 253 257 256 251 257 262 262 263 261 260 259 264 265 264 259 266 269 267 272 274
291 289 288 286 285 283 281 278 274 269 265 264 263 260 255 251 248 245 247 243 240 239 241 246 248 252 251 248 251 255 253 254 252 257 260 262 265 258 266 269 270 269 273 271 274
299 299 298 297 294 291 286 282 278 274 271 267 262 260 259 256 251 247 247 247 243 242 241 244 246 246 248 247 248 251 253 254 253 256 261 262 263 268 279 270 271 273 271 273 275
309 305 301 297 294 291 287 284 282 279 275 271 267 262 257 258 256 252 248 246 246 244 243 241 242 246 249 249 246 246 248 254 257 261 263 261 270 271 267 276 275 275 281 282 282
308 304 303 301 298 293 288 285 281 278 273 271 269 264 259 256 254 253 252 248 245 244 244 242 243 243 244 246 248 246 252 255 259 262 265 262 264 266 276 276 270 274 277 278 294
311 307 303 300 295 291 289 286 280 274 270 266 263 264 259 256 252 250 250 249 248 244 243 243 241 241 241 245 248 253 256 261 259 259 262 268 274 271 272 271 274 279 279 296 289
316 310 303 304 305 303 301 297 289 281 273 270 267 256 255 252 251 250 247 244 245 245 243 240 240 240 247 249 252 254 254 253 256 259 263 263 270 270 267 275 276 278 293 287 278
318 316 315 313 310 310 307 300 293 285 272 270 267 259 253 248 248 246 244 244 243 242 242 241 242 243 240 241 242 244 249 253 257 258 260 259 265 271 257 258 269 276 280 280 283
320 323 323 325 329 328 319 316 308 297 295 287 272 261 256 246 243 242 242 238 238 238 239 240 241 238 236 236 240 240 244 248 253 257 257 260 262 265 263 273 270 277 282 278 294
331 333 334 337 341 342 332 326 326 319 355 309 265 274 251 236 239 237 240 241 237 236 236 237 235 236 235 233 236 237 240 243 248 252 254 254 263 259 262 258 267 271 273 290 277
338 339 338 343 346 348 346 345 349 4 43 48 214 136 141 249 197 230 225 236 238 237 235 236 234 231 230 232 231 232 233 237 241 245 250 250 258 255 256 262 260 271 284 287 282
338 341 342 344 349 347 346 337 343 354 358 11 349 347 266 259 210 219 205 269 250 243 233 226 228 228 230 229 227 228 228 230 236 240 242 243 252 247 255 262 266 279 275 279 280
339 342 343 343 346 340 347 346 320 328 330 320 329 324 317 258 201 184 189 242 246 248 231 225 219 225 226 223 227 221 225 222 225 228 237 235 251 257 260 277 275 280 268 269 291
342 341 345 343 341 342 344 337 346 336 321 322 304 312 315 305 277 252 237 240 225 233 234 232 224 220 220 222 222 218 218 223 224 230 235 236 241 247 265 286 291 276 262 283 295
346 345 345 342 342 346 346 343 347 328 326 319 289 275 263 281 261 272 259 252 226 228 237 240 226 218 216 215 217 219 213 224 226 227 231 233 244 242 238 289 246 238 263 299 271
348 351 348 346 344 348 349 346 344 329 336 329 333 280 237 267 244 266 243 231 222 232 230 237 233 212 214 217 215 213 214 207 217 219 225 224 237 250 246 273 278 269 288 273 273
342 349 350 350 350 352 343 346 347 354 336 336 319 312 279 261 264 269 281 249 247 240 240 248 253 204 208 214 209 205 208 207 211 218 221 224 224 198 229 256 262 272 294 256 264
337 346 351 353 353 352 347 342 346 351 346 334 340 282 271 255 245 252 254 251 265 263 249 256 242 211 214 204 205 204 199 202 205 212 217 217 196 161 201 245 253 267 281 243 256
340 344 349 354 352 349 353 343 345 351 340 341 341 305 254 253 266 254 318 277 281 307 260 248 249 240 209 199 200 203 195 196 200 201 210 210 183 164 169 244 243 264 279 244 230
343 344 350 353 353 350 345 352 339 343 348 350 344 342 227 240 278 270 274 277 239 253 252 244 260 243 198 199 197 198 186 185 194 200 199 209 175 204 207 240 248 253 267 253 235
347 347 348 353 354 352 347 345 352 340 337 337 336 314 294 294 285 267 271 272 263 319 255 246 308 238 195 186 200 192 184 183 195 197 199 199 184 193 217 234 241 247 259 227 240
346 348 349 354 355 354 355 352 350 348 342 331 329 297 319 310 295 275 264 264 248 245 233 248 267 232 221 202 198 197 186 187 196 200 201 177 177 213 219 217 224 236 224 228 241
348 349 348 352 354 357 358 356 355 351 350 346 340 315 334 321 317 300 275 233 226 238 236 245 231 254 235 222 210 194 190 191 195 193 180 177 175 193 206 204 215 218 210 219 230
Height
5790 5790 5789 5789 5790 5789 5790 5791 5792 5792 5793 5795 5797 5799 5803 5806 5811 5813 5821 5824 5823 5825 5830 5831 5835 5837 5839 5840 5842 5841 5843 5849 5856 5861 5868 5866 5860 5861 5865 5864 5866 5869 5865 5869 5869
5784 5784 5783 5783 5782 5783 5783 5783 5782 5783 5783 5785 5787 5789 5791 5796 5801 5804 5814 5813 5814 5813 5818 5821 5824 5825 5826 5831 5829 5832 5835 5840 5854 5853 5854 5858 5852 5859 5858 5853 5863 5858 5859 5858 5858
5778 5777 5776 5775 5775 5774 5774 5774 5774 5774 5773 5774 5775 5778 5781 5784 5790 5794 5795 5801 5804 5804 5807 5809 5813 5814 5816 5820 5824 5825 5824 5836 5839 5841 5844 5847 5848 5850 5848 5851 5853 5850 5852 5852 5852
5772 5770 5769 5768 5767 5766 5765 5763 5763 5764 5764 5764 5765 5766 5768 5773 5778 5779 5783 5784 5792 5792 5796 5799 5801 5802 5805 5810 5814 5814 5819 5823 5828 5833 5835 5836 5841 5841 5843 5842 5846 5847 5846 5845 5847
5766 5764 5762 5759 5758 5756 5755 5754 5753 5752 5752 5752 5753 5754 5757 5761 5768 5763 5767 5770 5776 5779 5784 5786 5787 5789 5791 5797 5801 5803 5812 5811 5817 5822 5825 5828 5828 5830 5832 5835 5837 5841 5842 5841 5838
5760 5757 5755 5752 5750 5747 5744 5742 5740 5740 5740 5740 5741 5742 5746 5752 5751 5752 5751 5756 5761 5765 5769 5771 5776 5777 5780 5782 5785 5798 5796 5801 5804 5809 5814 5816 5816 5821 5825 5832 5831 5832 5832 5831 5830
5753 5750 5747 5744 5740 5737 5734 5731 5728 5726 5725 5725 5727 5728 5733 5739 5732 5738 5738 5743 5747 5751 5756 5759 5760 5761 5768 5771 5778 5781 5784 5788 5793 5799 5800 5807 5803 5811 5819 5819 5820 5820 5820 5821 5820
5745 5741 5738 5735 5731 5727 5722 5718 5714 5712 5710 5709 5710 5713 5720 5714 5719 5721 5725 5729 5733 5739 5742 5745 5747 5751 5753 5758 5764 5766 5769 5773 5788 5791 5795 5801 5791 5808 5808 5810 5809 5808 5810 5809 5808
5738 5734 5729 5724 5719 5714 5709 5703 5698 5697 5694 5693 5692 5695 5703 5700 5702 5705 5709 5714 5717 5722 5727 5730 5733 5737 5742 5747 5751 5758 5758 5766 5779 5787 5789 5789 5782 5791 5800 5799 5798 5801 5801 5801 5803
5731 5725 5719 5713 5706 5699 5692 5684 5679 5677 5675 5674 5673 5679 5678 5678 5684 5688 5693 5696 5700 5706 5710 5713 5716 5722 5732 5737 5742 5751 5757 5763 5767 5776 5778 5777 5775 5783 5790 5789 5788 5791 5791 5792 5792
5721 5714 5706 5697 5688 5680 5671 5661 5652 5648 5649 5648 5650 5652 5655 5654 5661 5668 5673 5678 5683 5687 5691 5693 5697 5714 5732 5738 5742 5744 5744 5748 5755 5762 5767 5769 5768 5771 5780 5778 5779 5781 5784 5784 5782
5710 5702 5694 5684 5676 5663 5648 5632 5617 5609 5616 5619 5614 5620 5627 5625 5638 5647 5651 5659 5664 5669 5671 5674 5691 5718 5720 5722 5719 5727 5735 5741 5749 5753 5757 5762 5758 5762 5770 5771 5774 5774 5777 5775 5775
5701 5692 5683 5672 5657 5641 5625 5611 5598 5590 5587 5592 5589 5591 5597 5604 5617 5627 5630 5637 5644 5649 5652 5661 5694 5697 5699 5701 5707 5719 5725 5735 5739 5743 5748 5751 5745 5752 5762 5766 5765 5766 5766 5768 5769
5692 5683 5672 5661 5648 5631 5616 5599 5589 5582 5580 5585 5581 5582 5584 5586 5599 5605 5612 5618 5626 5633 5636 5652 5673 5679 5681 5685 5699 5707 5720 5726 5728 5734 5736 5745 5733 5744 5755 5756 5759 5761 5758 5764 5763
5684 5674 5664 5651 5641 5628 5616 5602 5592 5583 5581 5583 5581 5581 5579 5584 5587 5593 5595 5601 5609 5615 5622 5654 5658 5655 5661 5679 5681 5701 5708 5713 5719 5722 5727 5730 5733 5741 5746 5749 5751 5753 5753 5753 5752
5676 5667 5656 5646 5636 5627 5615 5606 5598 5592 5584 5581 5579 5579 5581 5581 5585 5588 5590 5595 5598 5601 5611 5632 5635 5633 5656 5664 5667 5686 5693 5702 5709 5714 5711 5727 5728 5730 5740 5744 5744 5747 5747 5746 5744
5671 5661 5651 5640 5631 5623 5612 5605 5598 5591 5589 5584 5579 5579 5577 5581 5582 5581 5584 5589 5594 5595 5600 5609 5613 5625 5639 5648 5659 5671 5680 5687 5695 5698 5709 5724 5719 5726 5737 5736 5738 5739 5739 5738 5739
5666 5655 5647 5636 5628 5619 5609 5603 5595 5589 5586 5583 5581 5577 5575 5574 5578 5578 5580 5584 5586 5587 5588 5593 5602 5618 5628 5636 5645 5658 5667 5673 5684 5692 5705 5714 5705 5725 5728 5728 5731 5733 5733 5733 5733
5663 5651 5643 5634 5623 5614 5607 5599 5592 5585 5581 5576 5575 5575 5573 5570 5572 5574 5573 5577 5580 5580 5582 5582 5590 5602 5608 5620 5635 5648 5649 5677 5679 5687 5694 5702 5710 5716 5722 5724 5726 5729 5728 5729 5730
5659 5649 5638 5628 5619 5611 5605 5597 5590 5582 5575 5572 5569 5566 5567 5569 5569 5570 5571 5572 5573 5574 5576 5578 5580 5592 5602 5607 5622 5630 5656 5657 5665 5674 5684 5696 5702 5712 5715 5721 5723 5722 5724 5726 5726
5653 5647 5637 5627 5617 5609 5601 5595 5588 5581 5575 5572 5566 5565 5565 5565 5565 5566 5567 5569 5569 5569 5571 5572 5576 5591 5590 5595 5611 5627 5636 5645 5660 5667 5679 5690 5698 5711 5709 5714 5720 5720 5722 5723 5724
5648 5642 5633 5621 5613 5605 5598 5592 5586 5580 5574 5570 5566 5563 5563 5565 5566 5564 5563 5562 5563 5565 5568 5568 5568 5574 5580 5591 5601 5610 5621 5636 5645 5661 5674 5684 5697 5703 5706 5709 5713 5714 5720 5721 5722
5644 5637 5629 5620 5611 5604 5597 5589 5583 5579 5573 5569 5565 5563 5562 5563 5561 5561 5561 5561 5560 5562 5563 5565 5564 5565 5575 5585 5594 5601 5618 5628 5641 5656 5665 5678 5691 5695 5701 5704 5707 5710 5713 5720 5720
5640 5634 5626 5617 5609 5600 5595 5589 5584 5578 5572 5567 5564 5562 5561 5562 5560 5558 5558 5558 5556 5556 5558 5559 5559 5560 5566 5575 5579 5589 5604 5615 5629 5643 5659 5669 5689 5693 5696 5702 5701 5708 5711 5714 5716
5638 5630 5622 5616 5609 5600 5592 5585 5580 5575 5571 5566 5564 5561 5559 5557 5556 5553 5552 5553 5552 5552 5553 5556 5555 5556 5561 5567 5574 5585 5596 5607 5617 5633 5649 5665 5681 5688 5693 5697 5701 5705 5709 5712 5714
5637 5630 5623 5615 5607 5600 5591 5584 5578 5573 5568 5565 5561 5558 5555 5552 5550 5548 5546 5547 5548 5549 5550 5551 5552 5553 5557 5562 5568 5579 5590 5601 5615 5631 5643 5664 5672 5685 5687 5693 5696 5700 5706 5710 5711
5636 5628 5621 5614 5607 5599 5591 5583 5577 5571 5567 5561 5557 5555 5551 5548 5543 5540 5537 5539 5542 5545 5548 5549 5552 5553 5557 5562 5566 5579 5592 5604 5617 5631 5648 5656 5665 5664 5674 5683 5688 5694 5701 5705 5709